Regional Weather Roundup
Issued by NWS Upton, NY

Current Version | Previous Version | Text Only | Print | Product List | Glossary On
Versions: 1 2 3 4 5 6 7 8 9 10 11 12 13 14 15 16 17 18 19 20 21 22 23 24 25 26 27
000
ASUS41 KOKX 222309
RWROKX

REGIONAL WEATHER ROUNDUP
NATIONAL WEATHER SERVICE NEW YORK NY
700 PM EDT MON MAY 22 2017

NOTE: "FAIR" INDICATES FEW OR NO CLOUDS BELOW 12,000 FEET WITH NO
SIGNIFICANT WEATHER AND/OR OBSTRUCTIONS TO VISIBILITY.

NYZ071-072-176-178-NJZ106-104-230000-
NEW YORK CITY METRO AREA

CITY           SKY/WX    TMP DP  RH WIND       PRES   REMARKS
Central Park   CLOUDY    60  60 100 CALM      29.99S FOG
Wall St Helipt CLOUDY    61  59  94 CALM      29.98S
Bronx Bot Gard   N/A     59  57  94 SE3       29.98S
LaGuardia APRT CLOUDY    61  59  93 S6        29.96S FOG
Kennedy INTL   CLOUDY    60  60 100 S7        29.97F
Breezy Point     N/A     57 N/A N/A SW1         N/A
Newark/Liberty CLOUDY    59  59 100 SE3       29.96F FOG
Teterboro      CLOUDY    61  60  97 SW3       29.96S FOG
$$

NYZ177-179-078>081-230000-
LONG ISLAND NEW YORK

CITY           SKY/WX    TMP DP  RH WIND       PRES   REMARKS
Jones Beach      N/A     57 N/A N/A S6          N/A
Matinecock PT    N/A     61 N/A N/A S3          N/A
Farmingdale    CLOUDY    59  59 100 S7        29.97F
MacArthur/ISP  LGT RAIN  60  60 100 S7        29.97F FOG
Shirley        LGT RAIN  60  60 100 S9G20     29.98F
Mt Sinai Harb    N/A     61 N/A N/A S10G16      N/A
Westhampton    RAIN      58  56  93 SE8       30.00F FOG
East Hampton   DRIZZLE   55  55  97 SE8       29.99F
Montauk          N/A     56  56 100 SE7       30.01F
$$

NYZ052-065-067-230000-
HUDSON VALLEY

CITY           SKY/WX    TMP DP  RH WIND       PRES   REMARKS
White Plains     N/A     58  56  93 CALM      29.97S FOG
Larchmont Harb   N/A     57 N/A N/A N2          N/A
Croton O-T Hud   N/A     59 N/A N/A MISG        N/A
Newburgh       DRIZZLE   57  57 100 CALM      29.99S FOG
Montgomery     CLOUDY    58  56  93 CALM      29.98R
Poughkeepsie   CLOUDY    58  55  90 CALM      29.97S FOG
Albany         CLOUDY    57  53  86 S14G20    29.96S
$$

NJZ001-105-106-008-010-013-015-019>022-104-230000-
NEW JERSEY

CITY           SKY/WX    TMP DP  RH WIND       PRES   REMARKS
Newark/Liberty CLOUDY    59  59 100 SE3       29.96F FOG
Teterboro      CLOUDY    61  60  97 SW3       29.96S FOG
Caldwell       CLOUDY    63  59  87 CALM      29.97S
Somerville     CLOUDY    61  60  97 CALM      29.96R
Linden         CLOUDY    61  60  94 CALM      29.96S
Perth Amboy      N/A     61 N/A N/A SE1         N/A
Sussex         CLOUDY    60  57  89 CALM      29.98S
Andover          N/A     59  57  93 CALM      29.97F
Trenton        CLOUDY    63  61  93 N3        29.96S
Millville      CLOUDY    66  66 100 CALM      29.96R
Atlantic City  FOG       63  61  93 CALM      29.96S VSB 1/4
Wrightstown    CLOUDY    64  63  96 CALM      29.94S
Toms River     CLOUDY    63  62  97 CALM      29.96F
Belmar         CLOUDY    61  60  97 S3        29.97S FOG
$$

PAZ047>061-062-071-230000-
EASTERN PENNSYLVANIA

CITY           SKY/WX    TMP DP  RH WIND       PRES   REMARKS
Philadelphia   CLOUDY    66  62  87 CALM      29.97S
Allentown      CLOUDY    61  56  83 CALM      29.97S
Scranton       CLOUDY    63  56  78 SW6       29.96R
$$

CTZ002-004>006-009-010-012-RIZ004-006-007-MAZ004-011-015-230000-
SOUTHERN NEW ENGLAND
 IN CT

CITY           SKY/WX    TMP DP  RH WIND       PRES   REMARKS
Bradley INTL   DRIZZLE   53  52  96 CALM      30.00F FOG
Hartford       LGT RAIN  55  53  93 CALM      30.00F
Danbury        CLOUDY    55  55 100 NE3       29.99F
Wtrbury/Oxford LGT RAIN  54  50  87 SE5       30.00F VSB 1
Bridgeport     RAIN      58  56  93 E9        29.97F FOG
Meriden        LGT RAIN  55  54  96 N5        29.99S FOG
New Haven      LGT RAIN  56  55  97 SE9       29.97F FOG
Chester        LGT RAIN  54  54 100 SE3       30.00F VSB 1/2
Groton         LGT RAIN  55  53  93 E7        30.01F FOG
Wilimantic     LGT RAIN  55  53  93 CALM      30.01F FOG

 IN RI

CITY           SKY/WX    TMP DP  RH WIND       PRES   REMARKS
Providence     LGT RAIN  54  54 100 S8        30.04F FOG
Block Island   LGT RAIN  54  54 100 SE13      30.02S
Westerly       LGT RAIN  55  54  96 SE7       30.02F FOG
 IN MA

CITY           SKY/WX    TMP DP  RH WIND       PRES   REMARKS
Boston         DRIZZLE   52  50  93 S9        30.05S
Worcester      LGT RAIN  50  48  93 SE6       30.01F VSB 3/4
Westfield      CLOUDY    52  52 100 CALM      30.00F FOG
Provincetown   LGT RAIN  51  49  92 S10       30.07F
Nantucket      LGT RAIN  52  49  89 SE14      30.07F
$$

ANZ330-335-338-340-345-350-353-355-230000-
COASTAL MARINE OBSERVATIONS


STATION/POSITION TIME  SKY/WX   TEMP    WIND        PRES    VSBY  WAVE
                                AIR SEA DIR/SP/G                  HT/PER
                 (UTC)          (F)     (DEG/KT/KT) (MB)    (MI)  (FT/S)
NY HARB ENTRANCE 2150            58 57  150/ 12/ 12 1014.7          3/ 6
20 S FIRE ISLAND 2250            56 54  160/  8/  8 1014.5          3/ 6
GREAT SOUTH BAY  2230            59 64  160/ 14/ 17   N/A
23 SSW MONTAUK P 2250            56 54              1015.8          3/ 4
15 E BARNEGAT LI 2230               56                N/A           3/ 6
HUDSON CANYON    2150            58 53  140/ 10/ 12 1015.0          3/ 6
KINGS POINT      2230            59 57  210/  6/  8 1014.6
EXECUTION ROCKS  2245            60                   N/A
CENTRAL LI SOUND 2215            58     160/ 10/ 12   N/A           2/ 2
EASTERN LI SOUND NOT AVBL
ROBBINS REEF     2230            58     170/  7/  8 1015.1
$$


>>>>>>>>>>>>>>>>>>>>>>>>>>>> KEY <<<<<<<<<<<<<<<<<<<<<<<<<<<
>                                                          <
>     SKY/WX - Sky Condition/Present Weather               <
>     TMP    - Temperature in Fahrenheit                   <
>     DP     - Dew Point in Fahrenheit                     <
>     RH     - Relative Humidity in Percent                <
>     WIND   - Direction (from) and Speed in MPH           <
>     PRES   - Mean Sea Level Pressure (inches of Hg)      <
>     WCI    - Wind Chill Index                            <
>     VSB    - VISIBILITY IN MILES                         <
>     HX     - HEAT INDEX                                  <
>     TC     - TEMPERATURE IN CELSIUS                      <
>     VRB    - VARIABLE WIND DIRECTION                     <
>                                                          <
>>>>>>>>>>>>>>>>>>>>>>>>>>>> KEY <<<<<<<<<<<<<<<<<<<<<<<<<<<




USA.gov is the U.S. government's official web portal to all federal, state and local government web resources and services.